Year,Month,Day,Hour,Minute,Value (Times are PST for barometer in hPa)
2021,10,23,00,00,1002.56
2021,10,23,00,01,1002.54
2021,10,23,00,02,1002.54
2021,10,23,00,03,1002.54
2021,10,23,00,04,1002.54
2021,10,23,00,05,1002.54
2021,10,23,00,06,1002.54
2021,10,23,00,07,1002.54
2021,10,23,00,08,1002.54
2021,10,23,00,09,1002.54
2021,10,23,00,10,1002.54
2021,10,23,00,11,1002.54
2021,10,23,00,12,1002.54
2021,10,23,00,13,1002.54
2021,10,23,00,14,1002.54
2021,10,23,00,15,1002.37
2021,10,23,00,16,1002.37
2021,10,23,00,17,1002.37
2021,10,23,00,18,1002.37
2021,10,23,00,19,1002.37
2021,10,23,00,20,1002.37
2021,10,23,00,21,1002.37
2021,10,23,00,22,1002.37
2021,10,23,00,23,1002.37
2021,10,23,00,24,1002.37
2021,10,23,00,25,1002.37
2021,10,23,00,26,1002.37
2021,10,23,00,27,1002.37
2021,10,23,00,28,1002.37
2021,10,23,00,29,1002.37
2021,10,23,00,30,1002.20
2021,10,23,00,31,1002.20
2021,10,23,00,32,1002.20
2021,10,23,00,33,1002.20
2021,10,23,00,34,1002.20
2021,10,23,00,35,1002.20
2021,10,23,00,36,1002.20
2021,10,23,00,37,1002.20
2021,10,23,00,38,1002.20
2021,10,23,00,39,1002.20
2021,10,23,00,40,1002.20
2021,10,23,00,41,1002.20
2021,10,23,00,42,1002.20
2021,10,23,00,43,1002.20
2021,10,23,00,44,1002.20
2021,10,23,00,45,1001.94
2021,10,23,00,46,1001.93
2021,10,23,00,47,1001.93
2021,10,23,00,48,1001.93
2021,10,23,00,49,1001.93
2021,10,23,00,50,1001.93
2021,10,23,00,51,1001.93
2021,10,23,00,52,1001.93
2021,10,23,00,53,1001.93
2021,10,23,00,54,1001.93
2021,10,23,00,55,1001.93
2021,10,23,00,56,1001.93
2021,10,23,00,57,1001.93
2021,10,23,00,58,1001.93
2021,10,23,00,59,1001.93
2021,10,23,01,00,1002.03
2021,10,23,01,01,1002.03
2021,10,23,01,02,1002.03
2021,10,23,01,03,1002.03
2021,10,23,01,04,1002.03
2021,10,23,01,05,1002.03
2021,10,23,01,06,1002.03
2021,10,23,01,07,1002.03
2021,10,23,01,08,1002.03
2021,10,23,01,09,1002.03
2021,10,23,01,10,1002.03
2021,10,23,01,11,1002.03
2021,10,23,01,12,1002.03
2021,10,23,01,13,1002.03
2021,10,23,01,14,1002.03
2021,10,23,01,15,1001.90
2021,10,23,01,16,1001.90
2021,10,23,01,17,1001.90
2021,10,23,01,18,1001.90
2021,10,23,01,19,1001.90
2021,10,23,01,20,1001.90
2021,10,23,01,21,1001.90
2021,10,23,01,22,1001.90
2021,10,23,01,23,1001.90
2021,10,23,01,24,1001.90
2021,10,23,01,25,1001.90
2021,10,23,01,26,1001.90
2021,10,23,01,27,1001.90
2021,10,23,01,28,1001.90
2021,10,23,01,29,1001.90
2021,10,23,01,30,1001.77
2021,10,23,01,31,1001.76
2021,10,23,01,32,1001.76
2021,10,23,01,33,1001.76
2021,10,23,01,34,1001.76
2021,10,23,01,35,1001.76
2021,10,23,01,36,1001.76
2021,10,23,01,37,1001.76
2021,10,23,01,38,1001.76
2021,10,23,01,39,1001.76
2021,10,23,01,40,1001.76
2021,10,23,01,41,1001.76
2021,10,23,01,42,1001.76
2021,10,23,01,43,1001.76
2021,10,23,01,44,1001.76
2021,10,23,01,45,1001.53
2021,10,23,01,46,1001.52
2021,10,23,01,47,1001.52
2021,10,23,01,48,1001.52
2021,10,23,01,49,1001.52
2021,10,23,01,50,1001.52
2021,10,23,01,51,1001.52
2021,10,23,01,52,1001.52
2021,10,23,01,53,1001.52
2021,10,23,01,54,1001.52
2021,10,23,01,55,1001.52
2021,10,23,01,56,1001.52
2021,10,23,01,57,1001.52
2021,10,23,01,58,1001.52
2021,10,23,01,59,1001.52
2021,10,23,02,00,1001.52
2021,10,23,02,01,1001.52
2021,10,23,02,02,1001.52
2021,10,23,02,03,1001.52
2021,10,23,02,04,1001.52
2021,10,23,02,05,1001.52
2021,10,23,02,06,1001.52
2021,10,23,02,07,1001.52
2021,10,23,02,08,1001.52
2021,10,23,02,09,1001.52
2021,10,23,02,10,1001.52
2021,10,23,02,11,1001.52
2021,10,23,02,12,1001.52
2021,10,23,02,13,1001.52
2021,10,23,02,14,1001.52
2021,10,23,02,15,1001.49
2021,10,23,02,16,1001.49
2021,10,23,02,17,1001.49
2021,10,23,02,18,1001.49
2021,10,23,02,19,1001.49
2021,10,23,02,20,1001.49
2021,10,23,02,21,1001.49
2021,10,23,02,22,1001.49
2021,10,23,02,23,1001.49
2021,10,23,02,24,1001.49
2021,10,23,02,25,1001.49
2021,10,23,02,26,1001.49
2021,10,23,02,27,1001.49
2021,10,23,02,28,1001.49
2021,10,23,02,29,1001.49
2021,10,23,02,30,1001.36
2021,10,23,02,31,1001.36
2021,10,23,02,32,1001.36
2021,10,23,02,33,1001.36
2021,10,23,02,34,1001.36
2021,10,23,02,35,1001.36
2021,10,23,02,36,1001.36
2021,10,23,02,37,1001.36
2021,10,23,02,38,1001.36
2021,10,23,02,39,1001.36
2021,10,23,02,40,1001.36
2021,10,23,02,41,1001.36
2021,10,23,02,42,1001.36
2021,10,23,02,43,1001.36
2021,10,23,02,44,1001.36
2021,10,23,02,45,1001.05
2021,10,23,02,46,1001.05
2021,10,23,02,47,1001.05
2021,10,23,02,48,1001.05
2021,10,23,02,49,1001.05
2021,10,23,02,50,1001.05
2021,10,23,02,51,1001.05
2021,10,23,02,52,1001.05
2021,10,23,02,53,1001.05
2021,10,23,02,54,1001.05
2021,10,23,02,55,1001.05
2021,10,23,02,56,1001.05
2021,10,23,02,57,1001.05
2021,10,23,02,58,1001.05
2021,10,23,02,59,1001.05
2021,10,23,03,00,1001.02
2021,10,23,03,01,1001.02
2021,10,23,03,02,1001.02
2021,10,23,03,03,1001.02
2021,10,23,03,04,1001.02
2021,10,23,03,05,1001.02
2021,10,23,03,06,1001.02
2021,10,23,03,07,1001.02
2021,10,23,03,08,1001.02
2021,10,23,03,09,1001.02
2021,10,23,03,10,1001.02
2021,10,23,03,11,1001.02
2021,10,23,03,12,1001.02
2021,10,23,03,13,1001.02
2021,10,23,03,14,1001.02
2021,10,23,03,15,1000.95
2021,10,23,03,16,1000.95
2021,10,23,03,17,1000.95
2021,10,23,03,18,1000.95
2021,10,23,03,19,1000.95
2021,10,23,03,20,1000.95
2021,10,23,03,21,1000.95
2021,10,23,03,22,1000.95
2021,10,23,03,23,1000.95
2021,10,23,03,24,1000.95
2021,10,23,03,25,1000.95
2021,10,23,03,26,1000.95
2021,10,23,03,27,1000.95
2021,10,23,03,28,1000.95
2021,10,23,03,29,1000.95
2021,10,23,03,30,1000.69
2021,10,23,03,31,1000.68
2021,10,23,03,32,1000.68
2021,10,23,03,33,1000.68
2021,10,23,03,34,1000.68
2021,10,23,03,35,1000.68
2021,10,23,03,36,1000.68
2021,10,23,03,37,1000.68
2021,10,23,03,38,1000.68
2021,10,23,03,39,1000.68
2021,10,23,03,40,1000.68
2021,10,23,03,41,1000.68
2021,10,23,03,42,1000.68
2021,10,23,03,43,1000.68
2021,10,23,03,44,1000.68
2021,10,23,03,45,1000.55
2021,10,23,03,46,1000.54
2021,10,23,03,47,1000.54
2021,10,23,03,48,1000.54
2021,10,23,03,49,1000.54
2021,10,23,03,50,1000.54
2021,10,23,03,51,1000.54
2021,10,23,03,52,1000.54
2021,10,23,03,53,1000.54
2021,10,23,03,54,1000.54
2021,10,23,03,55,1000.54
2021,10,23,03,56,1000.54
2021,10,23,03,57,1000.54
2021,10,23,03,58,1000.54
2021,10,23,03,59,1000.54
2021,10,23,04,00,1000.44
2021,10,23,04,01,1000.44
2021,10,23,04,02,1000.44
2021,10,23,04,03,1000.44
2021,10,23,04,04,1000.44
2021,10,23,04,05,1000.44
2021,10,23,04,06,1000.44
2021,10,23,04,07,1000.44
2021,10,23,04,08,1000.44
2021,10,23,04,09,1000.44
2021,10,23,04,10,1000.44
2021,10,23,04,11,1000.44
2021,10,23,04,12,1000.44
2021,10,23,04,13,1000.44
2021,10,23,04,14,1000.44
2021,10,23,04,15,1000.20
2021,10,23,04,16,1000.20
2021,10,23,04,17,1000.20
2021,10,23,04,18,1000.20
2021,10,23,04,19,1000.20
2021,10,23,04,20,1000.20
2021,10,23,04,21,1000.20
2021,10,23,04,22,1000.20
2021,10,23,04,23,1000.20
2021,10,23,04,24,1000.20
2021,10,23,04,25,1000.20
2021,10,23,04,26,1000.20
2021,10,23,04,27,1000.20
2021,10,23,04,28,1000.20
2021,10,23,04,29,1000.20
2021,10,23,04,30,1000.00
2021,10,23,04,31,1000.00
2021,10,23,04,32,1000.00
2021,10,23,04,33,1000.00
2021,10,23,04,34,1000.00
2021,10,23,04,35,1000.00
2021,10,23,04,36,1000.00
2021,10,23,04,37,1000.00
2021,10,23,04,38,1000.00
2021,10,23,04,39,1000.00
2021,10,23,04,40,1000.00
2021,10,23,04,41,1000.00
2021,10,23,04,42,1000.00
2021,10,23,04,43,1000.00
2021,10,23,04,44,1000.00
2021,10,23,04,45,999.87
2021,10,23,04,46,999.87
2021,10,23,04,47,999.87
2021,10,23,04,48,999.87
2021,10,23,04,49,999.87
2021,10,23,04,50,999.87
2021,10,23,04,51,999.87
2021,10,23,04,52,999.87
2021,10,23,04,53,999.87
2021,10,23,04,54,999.87
2021,10,23,04,55,999.87
2021,10,23,04,56,999.87
2021,10,23,04,57,999.87
2021,10,23,04,58,999.87
2021,10,23,04,59,999.87
2021,10,23,05,00,999.77
2021,10,23,05,01,999.76
2021,10,23,05,02,999.76
2021,10,23,05,03,999.76
2021,10,23,05,04,999.76
2021,10,23,05,05,999.76
2021,10,23,05,06,999.76
2021,10,23,05,07,999.76
2021,10,23,05,08,999.76
2021,10,23,05,09,999.76
2021,10,23,05,10,999.76
2021,10,23,05,11,999.76
2021,10,23,05,12,999.76
2021,10,23,05,13,999.76
2021,10,23,05,14,999.76
2021,10,23,05,15,999.64
2021,10,23,05,16,999.63
2021,10,23,05,17,999.63
2021,10,23,05,18,999.63
2021,10,23,05,19,999.63
2021,10,23,05,20,999.63
2021,10,23,05,21,999.63
2021,10,23,05,22,999.63
2021,10,23,05,23,999.63
2021,10,23,05,24,999.63
2021,10,23,05,25,999.63
2021,10,23,05,26,999.63
2021,10,23,05,27,999.63
2021,10,23,05,28,999.63
2021,10,23,05,29,999.63
2021,10,23,05,30,999.53
2021,10,23,05,31,999.53
2021,10,23,05,32,999.53
2021,10,23,05,33,999.53
2021,10,23,05,34,999.53
2021,10,23,05,35,999.53
2021,10,23,05,36,999.53
2021,10,23,05,37,999.53
2021,10,23,05,38,999.53
2021,10,23,05,39,999.53
2021,10,23,05,40,999.53
2021,10,23,05,41,999.53
2021,10,23,05,42,999.53
2021,10,23,05,43,999.53
2021,10,23,05,44,999.53
2021,10,23,05,45,999.40
2021,10,23,05,46,999.39
2021,10,23,05,47,999.39
2021,10,23,05,48,999.39
2021,10,23,05,49,999.39
2021,10,23,05,50,999.39
2021,10,23,05,51,999.39
2021,10,23,05,52,999.39
2021,10,23,05,53,999.39
2021,10,23,05,54,999.39
2021,10,23,05,55,999.39
2021,10,23,05,56,999.39
2021,10,23,05,57,999.39
2021,10,23,05,58,999.39
2021,10,23,05,59,999.39
2021,10,23,06,00,999.39
2021,10,23,06,01,999.39
2021,10,23,06,02,999.39
2021,10,23,06,03,999.39
2021,10,23,06,04,999.39
2021,10,23,06,05,999.39
2021,10,23,06,06,999.39
2021,10,23,06,07,999.39
2021,10,23,06,08,999.39
2021,10,23,06,09,999.39
2021,10,23,06,10,999.39
2021,10,23,06,11,999.39
2021,10,23,06,12,999.39
2021,10,23,06,13,999.39
2021,10,23,06,14,999.39
2021,10,23,06,15,999.26
2021,10,23,06,16,999.26
2021,10,23,06,17,999.26
2021,10,23,06,18,999.26
2021,10,23,06,19,999.26
2021,10,23,06,20,999.26
2021,10,23,06,21,999.26
2021,10,23,06,22,999.26
2021,10,23,06,23,999.26
2021,10,23,06,24,999.26
2021,10,23,06,25,999.26
2021,10,23,06,26,999.26
2021,10,23,06,27,999.26
2021,10,23,06,28,999.26
2021,10,23,06,29,999.26
2021,10,23,06,30,999.06
2021,10,23,06,31,999.05
2021,10,23,06,32,999.05
2021,10,23,06,33,999.05
2021,10,23,06,34,999.05
2021,10,23,06,35,999.05
2021,10,23,06,36,999.05
2021,10,23,06,37,999.05
2021,10,23,06,38,999.05
2021,10,23,06,39,999.05
2021,10,23,06,40,999.05
2021,10,23,06,41,999.05
2021,10,23,06,42,999.05
2021,10,23,06,43,999.05
2021,10,23,06,44,999.05
2021,10,23,06,45,998.93
2021,10,23,06,46,998.92
2021,10,23,06,47,998.92
2021,10,23,06,48,998.92
2021,10,23,06,49,998.92
2021,10,23,06,50,998.92
2021,10,23,06,51,998.92
2021,10,23,06,52,998.92
2021,10,23,06,53,998.92
2021,10,23,06,54,998.92
2021,10,23,06,55,998.92
2021,10,23,06,56,998.92
2021,10,23,06,57,998.92
2021,10,23,06,58,998.92
2021,10,23,06,59,998.92
2021,10,23,07,00,998.88
2021,10,23,07,01,998.88
2021,10,23,07,02,998.88
2021,10,23,07,03,998.88
2021,10,23,07,04,998.88
2021,10,23,07,05,998.88
2021,10,23,07,06,998.88
2021,10,23,07,07,998.88
2021,10,23,07,08,998.88
2021,10,23,07,09,998.88
2021,10,23,07,10,998.88
2021,10,23,07,11,998.88
2021,10,23,07,12,998.88
2021,10,23,07,13,998.88
2021,10,23,07,14,998.88
2021,10,23,07,15,998.85
2021,10,23,07,16,998.85
2021,10,23,07,17,998.85
2021,10,23,07,18,998.85
2021,10,23,07,19,998.85
2021,10,23,07,20,998.85
2021,10,23,07,21,998.85
2021,10,23,07,22,998.85
2021,10,23,07,23,998.85
2021,10,23,07,24,998.85
2021,10,23,07,25,998.85
2021,10,23,07,26,998.85
2021,10,23,07,27,998.85
2021,10,23,07,28,998.85
2021,10,23,07,29,998.85
2021,10,23,07,30,998.72
2021,10,23,07,31,998.71
2021,10,23,07,32,998.71
2021,10,23,07,33,998.71
2021,10,23,07,34,998.71
2021,10,23,07,35,998.71
2021,10,23,07,36,998.71
2021,10,23,07,37,998.71
2021,10,23,07,38,998.71
2021,10,23,07,39,998.71
2021,10,23,07,40,998.71
2021,10,23,07,41,998.71
2021,10,23,07,42,998.71
2021,10,23,07,43,998.71
2021,10,23,07,44,998.71
2021,10,23,07,45,998.84
2021,10,23,07,46,998.85
2021,10,23,07,47,998.85
2021,10,23,07,48,998.85
2021,10,23,07,49,998.85
2021,10,23,07,50,998.85
2021,10,23,07,51,998.85
2021,10,23,07,52,998.85
2021,10,23,07,53,998.85
2021,10,23,07,54,998.85
2021,10,23,07,55,998.85
2021,10,23,07,56,998.85
2021,10,23,07,57,998.85
2021,10,23,07,58,998.85
2021,10,23,07,59,998.85
2021,10,23,08,00,998.82
2021,10,23,08,01,998.82
2021,10,23,08,02,998.82
2021,10,23,08,03,998.82
2021,10,23,08,04,998.82
2021,10,23,08,05,998.82
2021,10,23,08,06,998.82
2021,10,23,08,07,998.82
2021,10,23,08,08,998.82
2021,10,23,08,09,998.82
2021,10,23,08,10,998.82
2021,10,23,08,11,998.82
2021,10,23,08,12,998.82
2021,10,23,08,13,998.82
2021,10,23,08,14,998.82
2021,10,23,08,15,998.50
2021,10,23,08,16,998.48
2021,10,23,08,17,998.48
2021,10,23,08,18,998.48
2021,10,23,08,19,998.48
2021,10,23,08,20,998.48
2021,10,23,08,21,998.48
2021,10,23,08,22,998.48
2021,10,23,08,23,998.48
2021,10,23,08,24,998.48
2021,10,23,08,25,998.48
2021,10,23,08,26,998.48
2021,10,23,08,27,998.48
2021,10,23,08,28,998.48
2021,10,23,08,29,998.48
2021,10,23,08,30,998.41
2021,10,23,08,31,998.41
2021,10,23,08,32,998.41
2021,10,23,08,33,998.41
2021,10,23,08,34,998.41
2021,10,23,08,35,998.41
2021,10,23,08,36,998.41
2021,10,23,08,37,998.41
2021,10,23,08,38,998.41
2021,10,23,08,39,998.41
2021,10,23,08,40,998.41
2021,10,23,08,41,998.41
2021,10,23,08,42,998.41
2021,10,23,08,43,998.41
2021,10,23,08,44,998.41
2021,10,23,08,45,998.41
2021,10,23,08,46,998.41
2021,10,23,08,47,998.41
2021,10,23,08,48,998.41
2021,10,23,08,49,998.41
2021,10,23,08,50,998.41
2021,10,23,08,51,998.41
2021,10,23,08,52,998.41
2021,10,23,08,53,998.41
2021,10,23,08,54,998.41
2021,10,23,08,55,998.41
2021,10,23,08,56,998.41
2021,10,23,08,57,998.41
2021,10,23,08,58,998.41
2021,10,23,08,59,998.41
2021,10,23,09,00,998.44
2021,10,23,09,01,998.44
2021,10,23,09,02,998.44
2021,10,23,09,03,998.44
2021,10,23,09,04,998.44
2021,10,23,09,05,998.44
2021,10,23,09,06,998.44
2021,10,23,09,07,998.44
2021,10,23,09,08,998.44
2021,10,23,09,09,998.44
2021,10,23,09,10,998.44
2021,10,23,09,11,998.44
2021,10,23,09,12,998.44
2021,10,23,09,13,998.44
2021,10,23,09,14,998.44
2021,10,23,09,15,998.51
2021,10,23,09,16,998.51
2021,10,23,09,17,998.51
2021,10,23,09,18,998.51
2021,10,23,09,19,998.51
2021,10,23,09,20,998.51
2021,10,23,09,21,998.51
2021,10,23,09,22,998.51
2021,10,23,09,23,998.51
2021,10,23,09,24,998.51
2021,10,23,09,25,998.51
2021,10,23,09,26,998.51
2021,10,23,09,27,998.51
2021,10,23,09,28,998.51
2021,10,23,09,29,998.51
2021,10,23,09,30,998.54
2021,10,23,09,31,998.54
2021,10,23,09,32,998.54
2021,10,23,09,33,998.54
2021,10,23,09,34,998.54
2021,10,23,09,35,998.54
2021,10,23,09,36,998.54
2021,10,23,09,37,998.54
2021,10,23,09,38,998.54
2021,10,23,09,39,998.54
2021,10,23,09,40,998.54
2021,10,23,09,41,998.54
2021,10,23,09,42,998.54
2021,10,23,09,43,998.54
2021,10,23,09,44,998.54
2021,10,23,09,45,998.64
2021,10,23,09,46,998.65
2021,10,23,09,47,998.65
2021,10,23,09,48,998.65
2021,10,23,09,49,998.65
2021,10,23,09,50,998.65
2021,10,23,09,51,998.65
2021,10,23,09,52,998.65
2021,10,23,09,53,998.65
2021,10,23,09,54,998.65
2021,10,23,09,55,998.65
2021,10,23,09,56,998.65
2021,10,23,09,57,998.65
2021,10,23,09,58,998.65
2021,10,23,09,59,998.65
2021,10,23,10,00,998.85
2021,10,23,10,01,998.85
2021,10,23,10,02,998.85
2021,10,23,10,03,998.85
2021,10,23,10,04,998.85
2021,10,23,10,05,998.85
2021,10,23,10,06,998.85
2021,10,23,10,07,998.85
2021,10,23,10,08,998.85
2021,10,23,10,09,998.85
2021,10,23,10,10,998.85
2021,10,23,10,11,998.85
2021,10,23,10,12,998.85
2021,10,23,10,13,998.85
2021,10,23,10,14,998.85
2021,10,23,10,15,998.85
2021,10,23,10,16,998.85
2021,10,23,10,17,998.85
2021,10,23,10,18,998.85
2021,10,23,10,19,998.85
2021,10,23,10,20,998.85
2021,10,23,10,21,998.85
2021,10,23,10,22,998.85
2021,10,23,10,23,998.85
2021,10,23,10,24,998.85
2021,10,23,10,25,998.85
2021,10,23,10,26,998.85
2021,10,23,10,27,998.85
2021,10,23,10,28,998.85
2021,10,23,10,29,998.85
2021,10,23,10,30,998.69
2021,10,23,10,31,998.68
2021,10,23,10,32,998.68
2021,10,23,10,33,998.68
2021,10,23,10,34,998.68
2021,10,23,10,35,998.68
2021,10,23,10,36,998.68
2021,10,23,10,37,998.68
2021,10,23,10,38,998.68
2021,10,23,10,39,998.68
2021,10,23,10,40,998.68
2021,10,23,10,41,998.68
2021,10,23,10,42,998.68
2021,10,23,10,43,998.68
2021,10,23,10,44,998.68
2021,10,23,10,45,998.52
2021,10,23,10,46,998.51
2021,10,23,10,47,998.51
2021,10,23,10,48,998.51
2021,10,23,10,49,998.51
2021,10,23,10,50,998.51
2021,10,23,10,51,998.51
2021,10,23,10,52,998.51
2021,10,23,10,53,998.51
2021,10,23,10,54,998.51
2021,10,23,10,55,998.51
2021,10,23,10,56,998.51
2021,10,23,10,57,998.51
2021,10,23,10,58,998.51
2021,10,23,10,59,998.51
2021,10,23,11,00,998.51
2021,10,23,11,01,998.51
2021,10,23,11,02,998.51
2021,10,23,11,03,998.51
2021,10,23,11,04,998.51
2021,10,23,11,05,998.51
2021,10,23,11,06,998.51
2021,10,23,11,07,998.51
2021,10,23,11,08,998.51
2021,10,23,11,09,998.51
2021,10,23,11,10,998.51
2021,10,23,11,11,998.51
2021,10,23,11,12,998.51
2021,10,23,11,13,998.51
2021,10,23,11,14,998.51
2021,10,23,11,15,998.77
2021,10,23,11,16,998.78
2021,10,23,11,17,998.78
2021,10,23,11,18,998.78
2021,10,23,11,19,998.78
2021,10,23,11,20,998.78
2021,10,23,11,21,998.78
2021,10,23,11,22,998.78
2021,10,23,11,23,998.78
2021,10,23,11,24,998.78
2021,10,23,11,25,998.78
2021,10,23,11,26,998.78
2021,10,23,11,27,998.78
2021,10,23,11,28,998.78
2021,10,23,11,29,998.78
2021,10,23,11,30,998.85
2021,10,23,11,31,998.85
2021,10,23,11,32,998.85
2021,10,23,11,33,998.85
2021,10,23,11,34,998.85
2021,10,23,11,35,998.85
2021,10,23,11,36,998.85
2021,10,23,11,37,998.85
2021,10,23,11,38,998.85
2021,10,23,11,39,998.85
2021,10,23,11,40,998.85
2021,10,23,11,41,998.85
2021,10,23,11,42,998.85
2021,10,23,11,43,998.85
2021,10,23,11,44,998.85
2021,10,23,11,45,998.82
2021,10,23,11,46,998.82
2021,10,23,11,47,998.82
2021,10,23,11,48,998.82
2021,10,23,11,49,998.82
2021,10,23,11,50,998.82
2021,10,23,11,51,998.82
2021,10,23,11,52,998.82
2021,10,23,11,53,998.82
2021,10,23,11,54,998.82
2021,10,23,11,55,998.82
2021,10,23,11,56,998.82
2021,10,23,11,57,998.82
2021,10,23,11,58,998.82
2021,10,23,11,59,998.82
2021,10,23,12,00,998.82
2021,10,23,12,01,998.82
2021,10,23,12,02,998.82
2021,10,23,12,03,998.82
2021,10,23,12,04,998.82
2021,10,23,12,05,998.82
2021,10,23,12,06,998.82
2021,10,23,12,07,998.82
2021,10,23,12,08,998.82
2021,10,23,12,09,998.82
2021,10,23,12,10,998.82
2021,10,23,12,11,998.82
2021,10,23,12,12,998.82
2021,10,23,12,13,998.82
2021,10,23,12,14,998.82
2021,10,23,12,15,998.50
2021,10,23,12,16,998.48
2021,10,23,12,17,998.48
2021,10,23,12,18,998.48
2021,10,23,12,19,998.48
2021,10,23,12,20,998.48
2021,10,23,12,21,998.48
2021,10,23,12,22,998.48
2021,10,23,12,23,998.48
2021,10,23,12,24,998.48
2021,10,23,12,25,998.48
2021,10,23,12,26,998.48
2021,10,23,12,27,998.48
2021,10,23,12,28,998.48
2021,10,23,12,29,998.48
2021,10,23,12,30,998.41
2021,10,23,12,31,998.41
2021,10,23,12,32,998.41
2021,10,23,12,33,998.41
2021,10,23,12,34,998.41
2021,10,23,12,35,998.41
2021,10,23,12,36,998.41
2021,10,23,12,37,998.41
2021,10,23,12,38,998.41
2021,10,23,12,39,998.41
2021,10,23,12,40,998.41
2021,10,23,12,41,998.41
2021,10,23,12,42,998.41
2021,10,23,12,43,998.41
2021,10,23,12,44,998.41
2021,10,23,12,45,998.38
2021,10,23,12,46,998.38
2021,10,23,12,47,998.38
2021,10,23,12,48,998.38
2021,10,23,12,49,998.38
2021,10,23,12,50,998.38
2021,10,23,12,51,998.38
2021,10,23,12,52,998.38
2021,10,23,12,53,998.38
2021,10,23,12,54,998.38
2021,10,23,12,55,998.38
2021,10,23,12,56,998.38
2021,10,23,12,57,998.38
2021,10,23,12,58,998.38
2021,10,23,12,59,998.38
2021,10,23,13,00,998.31
2021,10,23,13,01,998.31
2021,10,23,13,02,998.31
2021,10,23,13,03,998.31
2021,10,23,13,04,998.31
2021,10,23,13,05,998.31
2021,10,23,13,06,998.31
2021,10,23,13,07,998.31
2021,10,23,13,08,998.31
2021,10,23,13,09,998.31
2021,10,23,13,10,998.31
2021,10,23,13,11,998.31
2021,10,23,13,12,998.31
2021,10,23,13,13,998.31
2021,10,23,13,14,998.31
2021,10,23,13,15,998.11
2021,10,23,13,16,998.10
2021,10,23,13,17,998.10
2021,10,23,13,18,998.10
2021,10,23,13,19,998.10
2021,10,23,13,20,998.10
2021,10,23,13,21,998.10
2021,10,23,13,22,998.10
2021,10,23,13,23,998.10
2021,10,23,13,24,998.10
2021,10,23,13,25,998.10
2021,10,23,13,26,998.10
2021,10,23,13,27,998.10
2021,10,23,13,28,998.10
2021,10,23,13,29,998.10
2021,10,23,13,30,998.04
2021,10,23,13,31,998.04
2021,10,23,13,32,998.04
2021,10,23,13,33,998.04
2021,10,23,13,34,998.04
2021,10,23,13,35,998.04
2021,10,23,13,36,998.04
2021,10,23,13,37,998.04
2021,10,23,13,38,998.04
2021,10,23,13,39,998.04
2021,10,23,13,40,998.04
2021,10,23,13,41,998.04
2021,10,23,13,42,998.04
2021,10,23,13,43,998.04
2021,10,23,13,44,998.04
2021,10,23,13,45,998.04
2021,10,23,13,46,998.04
2021,10,23,13,47,998.04
2021,10,23,13,48,998.04
2021,10,23,13,49,998.04
2021,10,23,13,50,998.04
2021,10,23,13,51,998.04
2021,10,23,13,52,998.04
2021,10,23,13,53,998.04
2021,10,23,13,54,998.04
2021,10,23,13,55,998.04
2021,10,23,13,56,998.04
2021,10,23,13,57,998.04
2021,10,23,13,58,998.04
2021,10,23,13,59,998.04
2021,10,23,14,00,998.23
2021,10,23,14,01,998.24
2021,10,23,14,02,998.24
2021,10,23,14,03,998.24
2021,10,23,14,04,998.24
2021,10,23,14,05,998.24
2021,10,23,14,06,998.24
2021,10,23,14,07,998.24
2021,10,23,14,08,998.24
2021,10,23,14,09,998.24
2021,10,23,14,10,998.24
2021,10,23,14,11,998.24
2021,10,23,14,12,998.24
2021,10,23,14,13,998.24
2021,10,23,14,14,998.24
2021,10,23,14,15,998.00
2021,10,23,14,16,997.97
2021,10,23,14,17,997.97
2021,10,23,14,18,997.97
2021,10,23,14,19,997.97
2021,10,23,14,20,997.97
2021,10,23,14,21,997.97
2021,10,23,14,22,997.97
2021,10,23,14,23,997.97
2021,10,23,14,24,997.97
2021,10,23,14,25,997.97
2021,10,23,14,26,997.97
2021,10,23,14,27,997.97
2021,10,23,14,28,997.97
2021,10,23,14,29,997.97
2021,10,23,14,30,997.88
2021,10,23,14,31,997.87
2021,10,23,14,32,997.87
2021,10,23,14,33,997.87
2021,10,23,14,34,997.87
2021,10,23,14,35,997.87
2021,10,23,14,36,997.87
2021,10,23,14,37,997.87
2021,10,23,14,38,997.87
2021,10,23,14,39,997.87
2021,10,23,14,40,997.87
2021,10,23,14,41,997.87
2021,10,23,14,42,997.87
2021,10,23,14,43,997.87
2021,10,23,14,44,997.87
2021,10,23,14,45,997.87
2021,10,23,14,46,997.87
2021,10,23,14,47,997.87
2021,10,23,14,48,997.87
2021,10,23,14,49,997.87
2021,10,23,14,50,997.87
2021,10,23,14,51,997.87
2021,10,23,14,52,997.87
2021,10,23,14,53,997.87
2021,10,23,14,54,997.87
2021,10,23,14,55,997.87
2021,10,23,14,56,997.87
2021,10,23,14,57,997.87
2021,10,23,14,58,997.87
2021,10,23,14,59,997.87
2021,10,23,15,00,997.97
2021,10,23,15,01,997.97
2021,10,23,15,02,997.97
2021,10,23,15,03,997.97
2021,10,23,15,04,997.97
2021,10,23,15,05,997.97
2021,10,23,15,06,997.97
2021,10,23,15,07,997.97
2021,10,23,15,08,997.97
2021,10,23,15,09,997.97
2021,10,23,15,10,997.97
2021,10,23,15,11,997.97
2021,10,23,15,12,997.97
2021,10,23,15,13,997.97
2021,10,23,15,14,997.97
2021,10,23,15,15,997.90
2021,10,23,15,16,997.90
2021,10,23,15,17,997.90
2021,10,23,15,18,997.90
2021,10,23,15,19,997.90
2021,10,23,15,20,997.90
2021,10,23,15,21,997.90
2021,10,23,15,22,997.90
2021,10,23,15,23,997.90
2021,10,23,15,24,997.90
2021,10,23,15,25,997.90
2021,10,23,15,26,997.90
2021,10,23,15,27,997.90
2021,10,23,15,28,997.90
2021,10,23,15,29,997.90
2021,10,23,15,30,998.05
2021,10,23,15,31,998.07
2021,10,23,15,32,998.07
2021,10,23,15,33,998.07
2021,10,23,15,34,998.07
2021,10,23,15,35,998.07
2021,10,23,15,36,998.07
2021,10,23,15,37,998.07
2021,10,23,15,38,998.07
2021,10,23,15,39,998.07
2021,10,23,15,40,998.07
2021,10,23,15,41,998.07
2021,10,23,15,42,998.07
2021,10,23,15,43,998.07
2021,10,23,15,44,998.07
2021,10,23,15,45,997.97
2021,10,23,15,46,997.97
2021,10,23,15,47,997.97
2021,10,23,15,48,997.97
2021,10,23,15,49,997.97
2021,10,23,15,50,997.97
2021,10,23,15,51,997.97
2021,10,23,15,52,997.97
2021,10,23,15,53,997.97
2021,10,23,15,54,997.97
2021,10,23,15,55,997.97
2021,10,23,15,56,997.97
2021,10,23,15,57,997.97
2021,10,23,15,58,997.97
2021,10,23,15,59,997.97
2021,10,23,16,00,997.94
2021,10,23,16,01,997.94
2021,10,23,16,02,997.94
2021,10,23,16,03,997.94
2021,10,23,16,04,997.94
2021,10,23,16,05,997.94
2021,10,23,16,06,997.94
2021,10,23,16,07,997.94
2021,10,23,16,08,997.94
2021,10,23,16,09,997.94
2021,10,23,16,10,997.94
2021,10,23,16,11,997.94
2021,10,23,16,12,997.94
2021,10,23,16,13,997.94
2021,10,23,16,14,997.94
2021,10,23,16,15,997.97
2021,10,23,16,16,997.97
2021,10,23,16,17,997.97
2021,10,23,16,18,997.97
2021,10,23,16,19,997.97
2021,10,23,16,20,997.97
2021,10,23,16,21,997.97
2021,10,23,16,22,997.97
2021,10,23,16,23,997.97
2021,10,23,16,24,997.97